Retour au catalogue

COSMOS 2251 DEB

ActifLEO
NORAD 34589·DEBRIS·🇷🇺 Russia

Lancé Jun 16, 1993 depuis Plesetsk Cosmodrome

Loading…

Prochains Passages (prochaines 24 heures)

TLE

FraisSource: Space-Track

Époque: Sep 14, 2026, 02:59 UTC

1 34589U 93036WB  26257.12496128  .00000558  00000-0  39272-3 0  9999
2 34589  73.9254 306.5934 0249130 196.7849 192.9028 13.86505818885281

Suivez COSMOS 2251 DEB en temps réel avec AllMySat

Download on the App Store